STARLINK-1307, 45397

Orbit data source: Space-Track

STARLINK-1307, 45397 is a payload satellite owned by SpaceX/Seattle (US) in LEO that was launched on Wed, 18 Mar 2020 UTC via an FALCON 9 launch vehicle from the Air Force Eastern Test Range (AFETR). Payload-class satellites include a variety of spacecraft equipped with specific instruments for various scientific and technological missions. These include communications satellites like Starlink; space stations such as the ISS; scientific satellites like the Hubble; Earth observation satellites from companies like Planet Labs, Umbra, and HawkEye 360; GPS; miniature CubeSats for education and research; and military/defense satellites.

Loading next visibility...
Identifier
45397, 2020-019AP
Orbit
LEO
Last TLE update
23 hours ago
Origin
Manufacturer
SpaceX/Seattle
Mission
Operational Commercial Communications
Bus & Motor
STARLINK, Unknown motor
Mass
260 kg wet, ~248 kg dry
Launch date (UTC)
2020-03-18 (5 years ago)
Launch vehicle
FALCON 9
Launch site
Air Force Eastern Test Range (AFETR)
Object type
Payload
Rocket body
Debris
Shape & HBR
Box + 1 Pan, 8.86 m
Radar Cross Section
13.562 m², Large (>1 m²)

Expand to show TLE details & history

TLE from 23 hours ago
0 STARLINK-1307
1 45397U 20019AP  25181.46506553  .00000394  00000-0  45308-4 0  9991
2 45397  53.0536 198.8969 0001205  84.1924 275.9203 15.06398778291811
Epoch: 2025-06-30T11:09Z
TLE epoch observation values (Epoch: 2025-06-30T11:09:41.661Z)
Latitude
0.00002°
Longitude
112.69884°
Altitude
548.008 km
Speed
7.589 km/s
True Right ascension
13h 15m 35s
True Declination
0° 00' 00"
Sunlit
Object was in daylight at epoch
Visualization orbit readout
Latitude
-50.07434°
Longitude
-8.33236°
Altitude
565.301 km
Speed
7.578 km/s
Apparent Right ascension
07h 50m 22s
Apparent Declination
-51° 38' 58"
Sunlit
Object is in daylight
Visualization observer readout
Local Sidereal Time
22:12:52
Azimuth
127.555° SE
Elevation
-62.878°
Doppler factor
1
Orbital elements
Apogee altitude
548.321 km
Perigee altitude
546.652 km
Semi-major axis
6,925.623 km
Eccentricity
0.00012
Inclination
53.0536°
RAAN
198.8969°
Arg. of periapsis
84.1924°
True anomaly
Unknown
Mean anomaly
275.9203°
Eccentric anomaly
Unknown
Mean motion
3.76578 °/min
Orbital period
95.6 mins
BSTAR
0.000045308
Loading maneuver chart data...
Loading SW <> Apogee altitude chart data...
Loading historical data...
Loading historical data...
Loading historical data...
Loading historical data...
Loading historical data...
Loading historical data...
Loading historical data...

STARLINK-1307 Visibility forecast

Observer location: undefined°, undefined°

Span
Click to sort rows by Start time (UTC) header in descending order
Start Az.
Max El. time (UTC)
Max El. Az.
Max El.
End time (UTC)
End Az.
6 mins2025-07-01 11:35:24.145Z285.261° WNW2025-07-01 11:38:24.145Z227.815° WSW26.235°2025-07-01 11:41:24.145Z172.119° S
6 mins2025-07-02 03:08:24.145Z205.448° SW2025-07-02 03:11:24.145Z125.095° SE37.588°2025-07-02 03:14:24.145Z62.593° ENE
6 mins2025-07-02 04:48:24.145Z281.307° WNW2025-07-02 04:51:24.145Z346.073° N24.97°2025-07-02 04:54:24.145Z33.1° NE
6 mins2025-07-02 09:50:24.145Z326.905° NNW2025-07-02 09:52:24.145Z17.569° NNE37.878°2025-07-02 09:56:24.145Z111.821° ESE
|